| time (UTC) | temp F | wind direction | speed MPH | gust MPH | rain 1hr in | rain 24hr in | rain mn in | humidity % | barometer mb |
| 20260903071556 | 78 | 206 | 7.0 | 15.0 | 0.00 | 0.00 | 0.00 | 33 | 1021.9 |
| 20260903070051 | 78 | 190 | 6.0 | 15.0 | 0.00 | 0.00 | 0.00 | 33 | 1021.9 |
| 20260903064556 | 79 | 229 | 7.0 | 18.0 | 0.00 | 0.00 | 0.00 | 32 | 1021.7 |
| 20260903063055 | 80 | 246 | 8.0 | 18.0 | 0.00 | 0.00 | 0.00 | 32 | 1021.6 |
| 20260903061602 | 80 | 219 | 9.0 | 16.0 | 0.00 | 0.00 | 0.00 | 32 | 1021.6 |
| 20260903060104 | 80 | 223 | 6.0 | 14.0 | 0.00 | 0.00 | 0.00 | 33 | 1021.6 |
| 20260903054557 | 81 | 228 | 6.0 | 14.0 | 0.00 | 0.00 | 0.00 | 32 | 1021.6 |
| 20260903053108 | 81 | 232 | 5.0 | 17.0 | 0.00 | 0.00 | 0.00 | 33 | 1021.6 |
| 20260903051557 | 81 | 212 | 4.0 | 14.0 | 0.00 | 0.00 | 0.00 | 34 | 1021.7 |
| 20260903050055 | 82 | 207 | 6.0 | 13.0 | 0.00 | 0.00 | 0.00 | 34 | 1021.8 |
| 20260903044555 | 82 | 254 | 5.0 | 13.0 | 0.00 | 0.00 | 0.00 | 34 | 1021.7 |
| 20260903043059 | 82 | 232 | 7.0 | 21.0 | 0.00 | 0.00 | 0.00 | 34 | 1022.2 |
| 20260903041558 | 82 | 191 | 6.0 | 14.0 | 0.00 | 0.00 | 0.00 | 36 | 1022.2 |
| 20260903040106 | 81 | 188 | 6.0 | 15.0 | 0.00 | 0.00 | 0.00 | 36 | 1022.3 |
| 20260903034551 | 81 | 213 | 6.0 | 15.0 | 0.00 | 0.00 | 0.00 | 37 | 1022.6 |
| 20260903033055 | 81 | 198 | 8.0 | 17.0 | 0.00 | 0.00 | 0.00 | 36 | 1022.8 |
| 20260903031553 | 81 | 196 | 8.0 | 19.0 | 0.00 | 0.00 | 0.00 | 37 | 1022.9 |
| 20260903030109 | 81 | 188 | 9.0 | 18.0 | 0.00 | 0.00 | 0.00 | 37 | 1023.1 |
| 20260903024555 | 80 | 187 | 6.0 | 17.0 | 0.00 | 0.00 | 0.00 | 38 | 1023.2 |
| 20260903023050 | 80 | 223 | 8.0 | 16.0 | 0.00 | 0.00 | 0.00 | 36 | 1023.4 |
| 20260903021551 | 80 | 232 | 4.0 | 16.0 | 0.00 | 0.00 | 0.00 | 40 | 1023.7 |
| 20260903020053 | 78 | 227 | 4.0 | 14.0 | 0.00 | 0.00 | 0.00 | 42 | 1024.0 |
| 20260903014559 | 78 | 212 | 6.0 | 18.0 | 0.00 | 0.00 | 0.00 | 43 | 1024.2 |
| 20260903013057 | 78 | 229 | 5.0 | 16.0 | 0.00 | 0.00 | 0.00 | 42 | 1024.5 |
| 20260903011607 | 77 | 227 | 7.0 | 15.0 | 0.00 | 0.00 | 0.00 | 43 | 1024.7 |
| 20260903010109 | 76 | 245 | 6.0 | 16.0 | 0.00 | 0.00 | 0.00 | 45 | 1024.9 |
| 20260903004549 | 75 | 246 | 6.0 | 16.0 | 0.00 | 0.00 | 0.00 | 47 | 1025.2 |
| 20260903003058 | 75 | 360 | 8.0 | 15.0 | 0.00 | 0.00 | 0.00 | 47 | 1025.4 |
| 20260903001550 | 74 | 0 | 5.0 | 13.0 | 0.00 | 0.00 | 0.00 | 51 | 1025.6 |
| 20260903000100 | 72 | 264 | 2.0 | 10.0 | 0.00 | 0.00 | 0.00 | 55 | 1025.7 |
| 20260902234556 | 70 | 219 | 5.0 | 13.0 | 0.00 | 0.00 | 0.00 | 56 | 1025.7 |
| 20260902233052 | 70 | 252 | 5.0 | 16.0 | 0.00 | 0.00 | 0.00 | 55 | 1025.7 |
| 20260902231607 | 69 | 217 | 5.0 | 16.0 | 0.00 | 0.00 | 0.00 | 58 | 1025.7 |
| 20260902230059 | 66 | 215 | 9.0 | 18.0 | 0.00 | 0.00 | 0.00 | 60 | 1025.6 |
| 20260902224602 | 65 | 226 | 7.0 | 18.0 | 0.00 | 0.00 | 0.00 | 63 | 1025.7 |
| 20260902223058 | 64 | 213 | 9.0 | 21.0 | 0.00 | 0.00 | 0.00 | 64 | 1025.7 |
| 20260902221618 | 63 | 360 | 7.0 | 16.0 | 0.00 | 0.00 | 0.00 | 64 | 1025.5 |
| 20260902220059 | 62 | 216 | 4.0 | 13.0 | 0.00 | 0.00 | 0.00 | 65 | 1025.3 |
| 20260902214558 | 61 | 270 | 5.0 | 11.0 | 0.00 | 0.00 | 0.00 | 66 | 1025.4 |
| 20260902213055 | 60 | 247 | 4.0 | 13.0 | 0.00 | 0.00 | 0.00 | 66 | 1025.2 |
| 20260902211553 | 59 | 0 | 3.0 | 10.0 | 0.00 | 0.00 | 0.00 | 68 | 1025.0 |
| 20260902210058 | 58 | 227 | 3.0 | 10.0 | 0.00 | 0.00 | 0.00 | 69 | 1024.8 |
| 20260902204557 | 56 | 254 | 0.0 | 5.0 | 0.00 | 0.00 | 0.00 | 70 | 1024.6 |
| 20260902203107 | 55 | 219 | 3.0 | 9.0 | 0.00 | 0.00 | 0.00 | 71 | 1024.5 |
| 20260902201558 | 55 | 206 | 3.0 | 7.0 | 0.00 | 0.00 | 0.00 | 71 | 1024.4 |
| 20260902200056 | 55 | 218 | 3.0 | 8.0 | 0.00 | 0.00 | 0.00 | 71 | 1024.4 |
| 20260902194555 | 55 | 0 | 1.0 | 8.0 | 0.00 | 0.00 | 0.00 | 70 | 1024.2 |
| 20260902193101 | 55 | 219 | 3.0 | 9.0 | 0.00 | 0.00 | 0.00 | 70 | 1024.0 |
| 20260902191619 | 55 | 215 | 3.0 | 8.0 | 0.00 | 0.00 | 0.00 | 70 | 1023.7 |
| 20260902190100 | 55 | 0 | 2.0 | 7.0 | 0.00 | 0.00 | 0.00 | 71 | 1023.5 |
| 20260902184625 | 54 | 223 | 3.0 | 8.0 | 0.00 | 0.00 | 0.00 | 72 | 1023.5 |
| 20260902183124 | 54 | 0 | 0.0 | 0.0 | 0.00 | 0.00 | 0.00 | 73 | 1023.4 |
| 20260902181605 | 54 | 0 | 0.0 | 0.0 | 0.00 | 0.00 | 0.00 | 73 | 1023.3 |
| 20260902180054 | 54 | 0 | 0.0 | 0.0 | 0.00 | 0.00 | 0.00 | 73 | 1023.4 |
| 20260902174600 | 53 | 0 | 0.0 | 0.0 | 0.00 | 0.00 | 0.00 | 73 | 1023.5 |
| 20260902173112 | 54 | 0 | 0.0 | 0.0 | 0.00 | 0.00 | 0.00 | 72 | 1023.5 |
| 20260902171608 | 54 | 0 | 0.0 | 0.0 | 0.00 | 0.00 | 0.00 | 72 | 1023.6 |
| 20260902170058 | 54 | 0 | 0.0 | 0.0 | 0.00 | 0.00 | 0.00 | 70 | 1023.7 |
| 20260902164602 | 55 | 0 | 0.0 | 0.0 | 0.00 | 0.00 | 0.00 | 69 | 1023.6 |
| 20260902163059 | 55 | 0 | 0.0 | 0.0 | 0.00 | 0.00 | 0.00 | 68 | 1023.5 |
| 20260902161601 | 56 | 0 | 0.0 | 0.0 | 0.00 | 0.00 | 0.00 | 67 | 1023.6 |
| 20260902160105 | 56 | 0 | 0.0 | 0.0 | 0.00 | 0.00 | 0.00 | 67 | 1023.6 |
| 20260902154554 | 57 | 0 | 0.0 | 0.0 | 0.00 | 0.00 | 0.00 | 66 | 1023.8 |
| 20260902153100 | 57 | 0 | 0.0 | 0.0 | 0.00 | 0.00 | 0.00 | 66 | 1024.1 |
| 20260902151547 | 57 | 0 | 0.0 | 0.0 | 0.00 | 0.00 | 0.00 | 65 | 1024.2 |
| 20260902150055 | 57 | 0 | 0.0 | 0.0 | 0.00 | 0.00 | 0.00 | 65 | 1024.4 |
| 20260902144551 | 57 | 0 | 0.0 | 0.0 | 0.00 | 0.00 | 0.00 | 65 | 1024.5 |
| 20260902143047 | 57 | 0 | 0.0 | 0.0 | 0.00 | 0.00 | 0.00 | 65 | 1024.6 |
| 20260902141554 | 57 | 0 | 0.0 | 0.0 | 0.00 | 0.00 | 0.00 | 66 | 1024.7 |
| 20260902140054 | 56 | 0 | 0.0 | 0.0 | 0.00 | 0.00 | 0.00 | 67 | 1024.8 |
| 20260902134555 | 56 | 0 | 0.0 | 0.0 | 0.00 | 0.00 | 0.00 | 67 | 1024.5 |
| 20260902133057 | 56 | 0 | 0.0 | 0.0 | 0.00 | 0.00 | 0.00 | 67 | 1024.5 |
| 20260902131556 | 57 | 0 | 0.0 | 0.0 | 0.00 | 0.00 | 0.00 | 66 | 1024.6 |
| 20260902130052 | 57 | 0 | 0.0 | 0.0 | 0.00 | 0.00 | 0.00 | 66 | 1024.7 |
| 20260902124554 | 57 | 0 | 0.0 | 0.0 | 0.00 | 0.00 | 0.00 | 66 | 1024.9 |
| 20260902123120 | 58 | 0 | 0.0 | 0.0 | 0.00 | 0.00 | 0.00 | 65 | 1024.7 |
| 20260902121559 | 58 | 0 | 0.0 | 0.0 | 0.00 | 0.00 | 0.00 | 64 | 1024.7 |
| 20260902120054 | 58 | 0 | 0.0 | 0.0 | 0.00 | 0.00 | 0.00 | 64 | 1024.7 |
| 20260902114606 | 58 | 0 | 0.0 | 0.0 | 0.00 | 0.00 | 0.00 | 64 | 1024.9 |
| 20260902113105 | 58 | 0 | 0.0 | 0.0 | 0.00 | 0.00 | 0.00 | 64 | 1024.8 |
| 20260902111600 | 59 | 0 | 0.0 | 0.0 | 0.00 | 0.00 | 0.00 | 64 | 1024.9 |
| 20260902104603 | 59 | 0 | 0.0 | 0.0 | 0.00 | 0.00 | 0.00 | 63 | 1024.9 |
| 20260902103052 | 59 | 0 | 0.0 | 0.0 | 0.00 | 0.00 | 0.00 | 63 | 1024.7 |
| 20260902101555 | 59 | 0 | 0.0 | 0.0 | 0.00 | 0.00 | 0.00 | 63 | 1024.7 |
| 20260902100056 | 60 | 0 | 0.0 | 0.0 | 0.00 | 0.00 | 0.00 | 62 | 1024.6 |
| 20260902094600 | 61 | 0 | 0.0 | 0.0 | 0.00 | 0.00 | 0.00 | 61 | 1024.5 |
| 20260902093103 | 62 | 0 | 0.0 | 0.0 | 0.00 | 0.00 | 0.00 | 59 | 1024.3 |
| 20260902091555 | 62 | 0 | 0.0 | 0.0 | 0.00 | 0.00 | 0.00 | 58 | 1024.3 |
| 20260902090051 | 63 | 0 | 0.0 | 0.0 | 0.00 | 0.00 | 0.00 | 58 | 1024.2 |
| 20260902084550 | 64 | 0 | 0.0 | 0.0 | 0.00 | 0.00 | 0.00 | 56 | 1024.1 |
| 20260902083053 | 65 | 0 | 0.0 | 0.0 | 0.00 | 0.00 | 0.00 | 55 | 1023.8 |
| 20260902081554 | 66 | 0 | 0.0 | 0.0 | 0.00 | 0.00 | 0.00 | 54 | 1023.8 |
| 20260902080052 | 67 | 0 | 0.0 | 0.0 | 0.00 | 0.00 | 0.00 | 53 | 1023.8 |
| 20260902074602 | 67 | 0 | 0.0 | 0.0 | 0.00 | 0.00 | 0.00 | 52 | 1023.6 |
| 20260902073053 | 68 | 0 | 0.0 | 0.0 | 0.00 | 0.00 | 0.00 | 52 | 1023.6 |